| time (UTC) | temp F | wind direction | speed knots | gust knots | rain 1hr in | rain 24hr in | rain mn in | humidity % | barometer mb |
| 20260904125008 | 71 | 210 | 0.0 | 0.9 | 0.00 | 0.15 | 0.00 | 61 | 1010.4 |
| 20260904122007 | 70 | 28 | 0.0 | 0.0 | 0.00 | 0.15 | 0.00 | 62 | 1010.4 |
| 20260904115006 | 71 | 41 | 0.0 | 0.0 | 0.00 | 0.15 | 0.00 | 62 | 1010.0 |
| 20260904112005 | 72 | 248 | 2.6 | 2.6 | 0.00 | 0.15 | 0.00 | 60 | 1009.6 |
| 20260904105004 | 72 | 276 | 1.7 | 1.7 | 0.00 | 0.15 | 0.00 | 60 | 1009.5 |
| 20260904102003 | 73 | 258 | 0.9 | 0.9 | 0.00 | 0.15 | 0.00 | 60 | 1009.2 |
| 20260904095002 | 73 | 194 | 0.0 | 0.0 | 0.00 | 0.15 | 0.00 | 59 | 1009.0 |
| 20260904092002 | 74 | 204 | 0.0 | 0.9 | 0.00 | 0.15 | 0.00 | 57 | 1008.7 |
| 20260904085000 | 72 | 240 | 1.7 | 1.7 | 0.00 | 0.15 | 0.00 | 62 | 1009.1 |
| 20260904081959 | 75 | 234 | 0.0 | 0.0 | 0.00 | 0.15 | 0.00 | 53 | 1008.6 |
| 20260904074958 | 75 | 281 | 0.0 | 0.0 | 0.00 | 0.15 | 0.00 | 53 | 1008.7 |
| 20260904071957 | 74 | 360 | 0.0 | 0.0 | 0.00 | 0.15 | 0.00 | 55 | 1009.0 |
| 20260904064956 | 77 | 360 | 0.0 | 0.0 | 0.00 | 0.15 | 0.00 | 52 | 1008.4 |
| 20260904061955 | 80 | 228 | 0.0 | 0.0 | 0.00 | 0.15 | 0.00 | 48 | 1007.8 |
| 20260904054954 | 82 | 290 | 1.7 | 1.7 | 0.00 | 0.15 | 0.00 | 45 | 1007.2 |
| 20260904051953 | 80 | 282 | 0.9 | 0.9 | 0.00 | 0.15 | 0.00 | 49 | 1007.5 |
| 20260904044952 | 82 | 316 | 0.9 | 0.9 | 0.00 | 0.15 | 0.15 | 47 | 1007.2 |
| 20260904041951 | 83 | 286 | 2.6 | 2.6 | 0.00 | 0.15 | 0.15 | 45 | 1007.1 |
| 20260904034950 | 84 | 246 | 0.9 | 0.9 | 0.00 | 0.15 | 0.15 | 41 | 1006.7 |
| 20260904031949 | 84 | 360 | 0.0 | 0.0 | 0.00 | 0.15 | 0.15 | 40 | 1006.3 |
| 20260904024948 | 84 | 360 | 0.0 | 0.0 | 0.00 | 0.15 | 0.15 | 41 | 1005.9 |
| 20260904021947 | 84 | 360 | 0.0 | 0.0 | 0.00 | 0.15 | 0.15 | 39 | 1005.6 |
| 20260904014946 | 86 | 360 | 0.0 | 0.0 | 0.00 | 0.15 | 0.15 | 39 | 1004.8 |
| 20260904011945 | 88 | 334 | 1.7 | 1.7 | 0.00 | 0.15 | 0.15 | 37 | 1004.6 |
| 20260904004944 | 90 | 335 | 4.3 | 4.3 | 0.00 | 0.15 | 0.15 | 34 | 1004.2 |
| 20260904001943 | 91 | 352 | 3.5 | 4.3 | 0.00 | 0.15 | 0.15 | 33 | 1003.9 |
| 20260903234942 | 95 | 262 | 2.6 | 2.6 | 0.00 | 0.15 | 0.15 | 29 | 1003.1 |
| 20260903231941 | 96 | 272 | 4.3 | 6.1 | 0.00 | 0.16 | 0.15 | 30 | 1002.7 |
| 20260903224941 | 101 | 186 | 2.6 | 7.0 | 0.01 | 0.16 | 0.15 | 21 | 1001.3 |
| 20260903221939 | 102 | 185 | 1.7 | 6.1 | 0.01 | 0.15 | 0.14 | 21 | 1001.1 |
| 20260903214938 | 101 | 183 | 2.6 | 2.6 | 0.01 | 0.15 | 0.14 | 23 | 1001.5 |
| 20260903211937 | 102 | 174 | 1.7 | 1.7 | 0.00 | 0.14 | 0.13 | 22 | 1001.8 |
| 20260903204936 | 101 | 145 | 0.9 | 2.6 | 0.00 | 0.15 | 0.12 | 22 | 1002.1 |
| 20260903201935 | 101 | 195 | 1.7 | 2.6 | 0.01 | 0.15 | 0.12 | 23 | 1002.7 |
| 20260903194935 | 101 | 237 | 3.5 | 7.0 | 0.01 | 0.15 | 0.11 | 23 | 1003.1 |
| 20260903191934 | 100 | 181 | 3.5 | 3.5 | 0.02 | 0.15 | 0.10 | 25 | 1003.6 |
| 20260903184933 | 99 | 184 | 4.3 | 7.8 | 0.03 | 0.15 | 0.09 | 26 | 1004.4 |
| 20260903181931 | 98 | 191 | 2.6 | 6.1 | 0.02 | 0.15 | 0.07 | 26 | 1005.1 |
| 20260903174930 | 97 | 193 | 3.5 | 7.8 | 0.01 | 0.15 | 0.05 | 29 | 1005.7 |
| 20260903171929 | 95 | 233 | 5.2 | 9.6 | 0.01 | 0.16 | 0.04 | 31 | 1006.4 |
| 20260903164928 | 93 | 233 | 5.2 | 9.6 | 0.01 | 0.18 | 0.04 | 34 | 1006.8 |
| 20260903161927 | 91 | 236 | 5.2 | 10.4 | 0.01 | 0.20 | 0.03 | 37 | 1007.3 |
| 20260903154926 | 89 | 213 | 3.5 | 7.0 | 0.02 | 0.21 | 0.02 | 39 | 1007.7 |
| 20260903151925 | 87 | 224 | 3.5 | 7.8 | 0.01 | 0.23 | 0.01 | 40 | 1008.0 |
| 20260903144925 | 84 | 230 | 6.1 | 11.3 | 0.00 | 0.26 | 0.00 | 43 | 1008.5 |
| 20260903141923 | 81 | 227 | 2.6 | 6.1 | 0.00 | 0.29 | 0.00 | 46 | 1009.4 |
| 20260903134922 | 75 | 244 | 0.9 | 2.6 | 0.00 | 0.29 | 0.00 | 52 | 1010.4 |